Waarnemingen

Advertentie
Mijn weer
Pertusato, Frankrijk (7770): temperatuur & dauwpunt: 17.05.2018 22:00:00 - 23.05.2018 22:00:00 (CEST)Pertusato, Frankrijk (7770): windsnelheid & windstoten: 17.05.2018 22:00:00 - 23.05.2018 22:00:00 (CEST)Pertusato, Frankrijk (7770): windrichting: 17.05.2018 22:00:00 - 23.05.2018 22:00:00 (CEST)Pertusato, Frankrijk (7770): luchtdruk: 17.05.2018 22:00:00 - 23.05.2018 22:00:00 (CEST)Pertusato, Frankrijk (7770): zicht: 17.05.2018 22:00:00 - 23.05.2018 22:00:00 (CEST)Pertusato, Frankrijk (7770): neerslag: 17.05.2018 22:00:00 - 23.05.2018 22:00:00 (CEST)
Datum & Tijd tt [°C] td [°C] ff [km/u] ff [kn] fx [km/u] fx [kn] dd ppp [hPa] vv [km] rr [mm]
23.05.2018 22:00:00 17,2 15,7 32 17 47 25 W 1018,2 - 0,0
23.05.2018 21:00:00 17,4 15,4 22 12 54 29 W 1017,2 - 0,0
23.05.2018 20:00:00 17,8 15,2 34 19 55 30 W 1016,5 - 0,0
23.05.2018 19:00:00 18,1 15,5 39 21 59 32 W 1016,2 - 0,0
23.05.2018 18:00:00 18,4 15,8 39 21 54 29 W 1016,2 - 0,0
23.05.2018 17:00:00 18,6 16,2 29 16 50 27 W 1016,7 - 0,0
23.05.2018 16:00:00 19,0 16,2 21 12 44 24 W 1016,9 - 0,0
23.05.2018 15:00:00 19,0 15,7 23 13 49 26 W 1017,0 - 0,0
23.05.2018 14:00:00 19,1 16,0 27 15 51 28 W 1017,2 18 0,0
23.05.2018 13:00:00 19,5 16,2 32 17 46 25 W 1016,9 - 0,0
23.05.2018 12:00:00 19,5 15,8 21 11 35 19 W 1017,1 - 0,0
23.05.2018 11:00:00 18,7 15,8 15 8 41 22 WNW 1016,6 - 0,0
23.05.2018 10:00:00 18,6 15,8 26 14 41 22 W 1016,1 - 0,0
23.05.2018 09:00:00 18,7 15,4 25 13 38 21 W 1016,2 - 0,0
23.05.2018 08:00:00 17,8 15,8 23 13 36 19 W 1015,7 22 0,0
23.05.2018 07:00:00 17,1 15,3 21 12 31 17 W 1015,3 - 0,0
23.05.2018 06:00:00 16,3 15,0 15 8 31 17 WNW 1014,9 - 0,0
23.05.2018 05:00:00 16,6 15,0 19 10 35 19 WNW 1014,6 18 0,0
23.05.2018 04:00:00 16,6 15,1 24 13 34 18 W 1014,6 - 0,0
23.05.2018 03:00:00 16,7 15,2 22 12 38 21 WNW 1014,6 - 0,0
23.05.2018 02:00:00 16,8 15,1 29 15 36 19 W 1014,7 - 0,0
23.05.2018 01:00:00 16,8 15,3 28 15 36 20 W 1014,7 - 0,0
23.05.2018 00:00:00 17,1 14,9 28 15 46 25 W 1014,6 - 0,0
22.05.2018 23:00:00 17,1 14,9 31 17 45 25 W 1014,3 - 0,0
22.05.2018 22:00:00 17,0 14,8 22 12 40 22 W 1013,9 - 0,0
22.05.2018 21:00:00 16,9 14,9 23 12 42 23 W 1013,4 - 0,0
22.05.2018 20:00:00 17,1 14,4 17 9 35 19 W 1013,3 25 0,0
22.05.2018 19:00:00 17,4 14,5 14 8 35 19 WNW 1013,2 - 0,0
22.05.2018 18:00:00 18,2 14,9 24 13 36 19 W 1012,9 - 0,0
22.05.2018 17:00:00 18,8 15,1 24 13 31 17 W 1012,9 25 0,0
22.05.2018 16:00:00 18,4 14,7 9 5 19 11 W 1013,1 - 0,0
22.05.2018 15:00:00 18,9 14,8 7 4 15 8 WZW 1013,3 - 0,0
22.05.2018 14:00:00 17,8 13,7 7 4 31 17 ZO 1013,3 15 0,0
22.05.2018 13:00:00 17,9 14,2 7 4 29 16 W 1013,3 - 0,0
22.05.2018 12:00:00 17,9 13,6 10 5 20 11 W 1013,0 - 0,0
22.05.2018 11:00:00 18,8 14,1 6 4 19 10 W 1012,7 - 0,0
22.05.2018 10:00:00 18,4 13,7 8 5 19 11 WNW 1012,4 - 0,0
22.05.2018 09:00:00 17,9 13,6 8 4 19 10 W 1012,2 - 0,0
22.05.2018 08:00:00 16,7 14,0 10 5 24 13 W 1012,0 20 0,0
22.05.2018 07:00:00 16,4 14,1 13 7 24 13 W 1011,6 - 0,0
22.05.2018 06:00:00 16,3 14,0 10 5 31 17 WNW 1011,4 - 0,0
22.05.2018 05:00:00 16,1 14,1 11 6 26 14 W 1011,1 20 0,0
22.05.2018 04:00:00 16,2 14,7 10 5 32 17 N 1011,2 - 0,0
22.05.2018 03:00:00 16,1 15,5 10 5 30 16 NNW 1011,2 - 1,0
22.05.2018 02:00:00 16,2 15,4 10 6 27 15 NNO 1011,2 - 6,3
22.05.2018 01:00:00 16,7 16,1 4 2 11 6 Z 1011,7 - 0,0
22.05.2018 00:00:00 16,0 15,4 7 4 13 7 OZO 1011,9 - 0,0
21.05.2018 23:00:00 15,8 15,0 10 5 14 7 O 1012,0 - 0,0
21.05.2018 22:00:00 16,2 15,4 10 5 14 7 ONO 1011,6 - 0,0
21.05.2018 21:00:00 16,4 15,4 10 5 15 8 ONO 1011,3 - 0,0
21.05.2018 20:00:00 16,9 15,8 10 5 14 7 NO 1010,9 - 0,0
21.05.2018 19:00:00 17,1 15,6 9 5 13 7 NO 1010,8 - 0,0
21.05.2018 18:00:00 17,4 16,3 5 3 14 8 NO 1010,9 - 0,0
21.05.2018 17:00:00 17,5 15,8 5 3 12 7 NNW 1011,1 - 0,6
21.05.2018 16:00:00 17,4 16,3 0 0 12 7 N 1011,3 - 1,0
21.05.2018 15:00:00 17,3 15,6 10 5 25 14 ZO 1011,9 - 0,8
21.05.2018 14:00:00 18,3 15,5 17 9 26 14 OZO 1011,6 - 0,0
21.05.2018 13:00:00 20,3 16,7 19 10 29 15 OZO 1011,6 - 0,0
21.05.2018 12:00:00 21,5 16,7 19 10 26 14 ONO 1011,6 - 0,0
21.05.2018 11:00:00 19,8 16,8 12 7 22 12 ONO 1012,0 15 0,0
21.05.2018 10:00:00 19,9 16,3 16 9 26 14 ONO 1012,0 - 0,0
21.05.2018 09:00:00 18,8 16,6 13 7 19 10 ONO 1011,8 - 0,0
21.05.2018 08:00:00 19,0 15,7 9 5 20 11 O 1011,9 15 0,0
21.05.2018 07:00:00 17,9 15,5 14 8 20 11 ONO 1011,7 - 0,0
21.05.2018 06:00:00 17,1 15,1 14 8 22 12 ONO 1011,7 - 0,0
21.05.2018 05:00:00 17,1 16,0 14 8 19 11 ONO 1011,7 - 0,0
21.05.2018 04:00:00 17,4 16,6 11 6 21 11 O 1011,7 - 0,0
21.05.2018 03:00:00 17,6 16,8 14 8 23 12 O 1012,0 - 0,0
21.05.2018 02:00:00 17,9 16,8 15 8 26 14 OZO 1012,2 - 0,0
21.05.2018 01:00:00 17,7 15,9 20 11 27 15 ONO 1012,5 - 0,0
21.05.2018 00:00:00 17,3 15,6 18 10 26 14 ONO 1012,7 - 0,0
20.05.2018 23:00:00 17,4 15,9 16 9 27 15 ONO 1012,8 - 0,0
20.05.2018 22:00:00 17,5 15,7 18 10 27 14 ONO 1012,6 - 0,0
20.05.2018 21:00:00 17,7 16,0 20 11 27 15 ONO 1012,1 - 0,0
20.05.2018 20:00:00 18,6 15,8 18 10 26 14 ONO 1012,1 15 0,0
20.05.2018 19:00:00 19,7 16,0 19 10 30 16 ONO 1011,8 - 0,0
20.05.2018 18:00:00 20,7 15,5 22 12 32 17 ONO 1011,8 - 0,0
20.05.2018 17:00:00 21,4 16,6 21 11 33 18 ONO 1012,2 - 0,0
20.05.2018 16:00:00 22,6 15,2 20 11 35 19 ONO 1012,5 - 0,0
20.05.2018 15:00:00 24,1 15,8 21 11 33 18 ONO 1012,7 - 0,0
20.05.2018 14:00:00 21,9 16,4 19 10 31 17 ONO 1013,1 20 0,0
20.05.2018 13:00:00 22,8 15,4 19 11 33 18 ONO 1013,5 - 0,0
20.05.2018 12:00:00 23,3 13,5 21 11 30 16 ONO 1013,9 - 0,0
20.05.2018 11:00:00 22,9 13,4 17 9 27 14 ONO 1013,7 20 0,0
20.05.2018 10:00:00 21,9 12,7 13 7 21 12 O 1013,8 - 0,0
20.05.2018 09:00:00 20,8 15,1 6 3 10 6 ONO 1013,9 - 0,0
20.05.2018 08:00:00 18,3 15,4 3 2 9 5 ZZO 1014,1 18 0,0
20.05.2018 07:00:00 16,8 14,6 6 4 9 5 O 1014,0 - 0,0
20.05.2018 06:00:00 15,9 14,6 6 4 13 7 ONO 1013,7 - 0,0
20.05.2018 05:00:00 14,7 11,3 11 6 17 9 ONO 1013,9 - 0,0
20.05.2018 04:00:00 15,2 12,7 15 8 18 10 ONO 1014,2 - 0,0
20.05.2018 03:00:00 15,2 13,4 12 6 14 8 NO 1014,8 - 0,0
20.05.2018 02:00:00 15,5 14,0 12 6 16 9 ONO 1015,0 - 0,0
20.05.2018 01:00:00 15,7 13,0 10 5 13 7 NO 1015,1 - 0,0
20.05.2018 00:00:00 16,5 13,4 0 0 5 3 N 1014,8 - 0,0
19.05.2018 23:00:00 16,5 13,4 2 1 4 2 Z 1014,7 - 0,0
19.05.2018 22:00:00 16,8 12,7 0 0 5 3 N 1014,5 - 0,0
19.05.2018 21:00:00 17,8 13,3 4 2 6 4 NO 1014,0 - 0,0
19.05.2018 20:00:00 20,1 13,5 4 2 10 5 O 1014,1 - 0,0
19.05.2018 19:00:00 21,4 12,8 3 2 13 7 O 1013,9 - 0,0
19.05.2018 18:00:00 21,7 12,0 7 4 16 9 ZO 1014,1 - 0,0
19.05.2018 17:00:00 22,0 13,4 5 3 12 7 ZZW 1014,2 18 0,0
19.05.2018 16:00:00 20,7 15,5 8 4 13 7 WZW 1014,6 - 0,0
19.05.2018 15:00:00 20,6 14,9 7 4 14 7 WZW 1015,0 - 0,0
19.05.2018 14:00:00 20,6 14,5 6 3 13 7 W 1015,3 - 0,0
19.05.2018 13:00:00 20,5 15,3 6 3 11 6 WZW 1015,7 - 0,0
19.05.2018 12:00:00 19,7 16,2 10 5 13 7 W 1015,8 - 0,0
19.05.2018 11:00:00 18,7 15,4 7 4 12 6 ZW 1015,6 - 0,0
19.05.2018 10:00:00 17,9 15,9 5 3 10 5 W 1015,3 - 0,0
19.05.2018 09:00:00 17,6 15,9 6 3 10 5 W 1015,2 - 0,0
19.05.2018 08:00:00 16,9 15,6 9 5 11 6 WNW 1015,4 20 0,0
19.05.2018 07:00:00 15,7 14,9 5 3 6 3 W 1014,9 - 0,0
19.05.2018 06:00:00 15,2 14,6 4 2 8 4 W 1014,6 - 0,0
19.05.2018 05:00:00 15,3 14,7 6 3 8 4 W 1014,6 18 0,0
19.05.2018 04:00:00 14,4 12,8 4 2 10 5 NNO 1014,8 - 0,0
19.05.2018 03:00:00 15,6 14,5 5 3 8 4 ZW 1014,8 - 0,0
19.05.2018 02:00:00 14,0 12,6 0 0 4 2 N 1015,2 - 0,0
19.05.2018 01:00:00 14,7 12,9 0 0 5 3 N 1015,6 - 0,0
19.05.2018 00:00:00 15,1 13,5 4 2 15 8 OZO 1015,7 - 0,0
18.05.2018 23:00:00 15,1 13,5 10 6 14 8 OZO 1015,5 - 0,0
18.05.2018 22:00:00 16,8 13,1 4 2 10 5 Z 1015,1 - 0,0
18.05.2018 21:00:00 17,0 14,3 5 3 10 5 ZW 1014,9 - 0,0
18.05.2018 20:00:00 18,4 14,3 6 3 16 9 WZW 1014,8 25 0,0
18.05.2018 19:00:00 20,7 11,1 9 5 21 11 NO 1014,4 - 0,0
18.05.2018 18:00:00 21,3 11,0 13 7 24 13 O 1014,5 - 0,0
18.05.2018 17:00:00 21,9 11,0 14 7 24 13 ONO 1014,6 25 0,0
18.05.2018 16:00:00 21,9 11,6 15 8 23 13 O 1014,8 - 0,0
18.05.2018 15:00:00 22,0 13,4 14 8 26 14 O 1015,3 - 0,0
18.05.2018 14:00:00 21,3 13,5 17 9 29 16 OZO 1015,6 - 0,0
18.05.2018 13:00:00 20,2 13,4 21 11 30 16 OZO 1015,8 - 0,0
18.05.2018 12:00:00 20,9 13,8 18 10 30 16 O 1015,8 - 0,0
18.05.2018 11:00:00 20,4 13,8 19 10 29 16 O 1015,6 25 0,0
18.05.2018 10:00:00 19,4 14,0 17 9 26 14 O 1015,6 - 0,0
18.05.2018 09:00:00 18,3 14,4 16 9 26 14 ONO 1015,5 - 0,0
18.05.2018 08:00:00 16,7 14,0 17 9 25 13 ONO 1015,6 25 0,0
18.05.2018 07:00:00 15,2 14,6 14 7 21 12 NO 1015,5 - 0,0
18.05.2018 06:00:00 14,3 13,5 13 7 20 11 ONO 1015,2 - 0,0
18.05.2018 05:00:00 14,3 13,5 13 7 18 10 ONO 1015,1 18 0,0
18.05.2018 04:00:00 14,3 13,3 12 7 19 10 ONO 1015,1 - 0,0
18.05.2018 03:00:00 14,3 13,3 11 6 14 8 ONO 1015,3 - 0,0
18.05.2018 02:00:00 14,7 13,7 11 6 17 9 ONO 1015,5 - 0,0
18.05.2018 01:00:00 14,2 13,2 12 7 18 10 ONO 1015,7 - 0,0
18.05.2018 00:00:00 14,7 13,7 13 7 18 10 ONO 1015,7 - 0,0
17.05.2018 23:00:00 15,4 14,4 13 7 20 11 O 1015,8 - 0,0
17.05.2018 22:00:00 15,3 14,2 14 8 21 12 O 1015,7 - 0,0

tt = temperatuur
td = dauwpunt
ff = windsnelheid
fx = windstoten
dd = windrichting
ppp = luchtdruk
vv = zicht
rr = neerslag

Weerstations in de omgeving